User: anonymous   Login
Location: *
(47.2969°N, 10.2930°E)
Time: 02:59:22
(UTC+00:00)
Language:

COSMOS 1867 COOLANT - Orbit

View from above orbital plane
View from above orbital plane
View from above satellite
View from above satellite

Ground track
Ground track

The orbit data is extracted from the following two-line orbital elements,

1 39641U 87060J   20296.39029721 -.00000021 +00000-0 +29638-4 0  9992
2 39641 065.0088 041.1207 0014807 282.1577 077.7848 14.31629592340885
Epoch (UTC): 22 October 2020 09:22:01
Eccentricity: 0.0014807
inclination: 65.0088°
perigee height: 775 km
apogee height: 797 km
right ascension of ascending node: 41.1207°
argument of perigee: 282.1577°
revolutions per day: 14.31629592
mean anomaly at epoch: 77.7848°
orbit number at epoch: 34088

The dashed part of the orbit path shows where the satellite is in the earth's shadow,  

DLR